Clarksville, TN

1:02 PM CDT on June 25, 2017 (GMT -0500)
Outlaw

Weather History for KCKV - April, 2013

Change the Weather History Date:

Saturday, April 6, 2013

  Actual Average Record
Temperature  
Mean Temperature 58 °F 55 °F  
Max Temperature 75 °F 67 °F 88 °F (1967)
Min Temperature 40 °F 42 °F 22 °F (1982)
Degree Days  
Heating Degree Days 7    
Month to date heating degree days 103  
Since 1 July heating degree days 3714  
Cooling Degree Days 0    
Month to date cooling degree days 0  
Year to date cooling degree days  
Growing Degree Days 7 (Base 50)    
Moisture  
Dew Point 38 °F    
Average Humidity 57    
Maximum Humidity 89    
Minimum Humidity 25    
Precipitation  
Precipitation 0.00 in 0.11 in 1.22 in (1956)
Month to date precipitation 0.24 0.65  
Year to date precipitation 12.20  
Sea Level Pressure  
Sea Level Pressure 30.04 in    
Wind  
Wind Speed 8 mph (South)    
Max Wind Speed 20 mph    
Max Gust Speed 25 mph    
Visibility 10 miles    
Events      
T = Trace of Precipitation, MM = Missing Value Source: NWS Daily Summary

Daily Weather History Graph

Daily Weather History Graph

Search for Another Location

Airport or City:

Trip Planner

Search our weather history database for the weather conditions in past years. The results will help you decide how hot, cold, wet, or windy it might be!

Date:

Astronomy

Apr. 06, 2013 Rise Set
Actual Time 6:28 AM CDT 7:16 PM CDT
Civil Twilight 6:01 AM CDT 7:42 PM CDT
Nautical Twilight 5:30 AM CDT 8:13 PM CDT
Astronomical Twilight 4:58 AM CDT 8:45 PM CDT
Moon 4:05 AM CDT (4/6) 3:49 PM CDT (4/6)
Length of Visible Light 13h 40m
Length of Day
12h 48m
Waning Crescent, 15% of the Moon is Illuminated
Apr 6
Waning Crescent
Apr 10
New
Apr 18
First Quarter
Apr 25
Full
May 2
Last Quarter

Hourly Weather History & Observations

Time (CDT) Temp. Windchill Dew Point Humidity Pressure Visibility Wind Dir Wind Speed Gust Speed Precip Events Conditions
12:52 AM 46.0 °F - 37.9 °F 73% 30.11 in 10.0 mi Calm Calm - N/A   Clear
1:52 AM 44.1 °F - 37.9 °F 79% 30.10 in 10.0 mi Calm Calm - N/A   Clear
2:52 AM 43.0 °F - 37.9 °F 82% 30.09 in 10.0 mi Calm Calm - N/A   Clear
3:52 AM 43.0 °F - 39.0 °F 86% 30.09 in 10.0 mi Calm Calm - N/A   Clear
4:52 AM 42.1 °F 39.2 °F 39.0 °F 89% 30.09 in 9.0 mi East 4.6 mph - N/A   Clear
5:52 AM 42.1 °F - 39.0 °F 89% 30.11 in 10.0 mi Calm Calm - N/A   Clear
6:52 AM 41.0 °F 39.0 °F 37.9 °F 89% 30.12 in 9.0 mi ESE 3.5 mph - N/A   Clear
7:52 AM 46.9 °F - 41.0 °F 80% 30.12 in 10.0 mi SE 4.6 mph - N/A   Clear
8:52 AM 53.1 °F - 41.0 °F 64% 30.12 in 10.0 mi South 5.8 mph - N/A   Clear
9:52 AM 62.1 °F - 41.0 °F 46% 30.11 in 10.0 mi South 8.1 mph - N/A   Clear
10:52 AM 66.0 °F - 39.9 °F 38% 30.11 in 10.0 mi SSE 8.1 mph - N/A   Clear
11:52 AM 70.0 °F - 37.9 °F 31% 30.09 in 10.0 mi SSW 11.5 mph 20.7 mph N/A   Clear
12:52 PM 71.1 °F - 37.9 °F 30% 30.06 in 10.0 mi South 11.5 mph - N/A   Clear
1:52 PM 72.0 °F - 37.9 °F 29% 30.04 in 10.0 mi SSW 11.5 mph - N/A   Clear
2:52 PM 73.0 °F - 37.0 °F 27% 29.99 in 10.0 mi South 11.5 mph 21.9 mph N/A   Clear
3:52 PM 73.9 °F - 35.1 °F 24% 29.96 in 10.0 mi SW 13.8 mph 23.0 mph N/A   Clear
4:52 PM 73.9 °F - 36.0 °F 25% 29.95 in 10.0 mi SSW 13.8 mph 20.7 mph N/A   Clear
5:52 PM 73.0 °F - 36.0 °F 26% 29.93 in 10.0 mi SSW 15.0 mph - N/A   Clear
6:52 PM 70.0 °F - 37.9 °F 31% 29.94 in 10.0 mi South 12.7 mph 21.9 mph N/A   Clear
7:52 PM 66.0 °F - 37.9 °F 36% 29.93 in 10.0 mi SSE 8.1 mph - N/A   Clear
8:52 PM 64.9 °F - 37.9 °F 37% 29.95 in 10.0 mi South 6.9 mph - N/A   Clear
9:52 PM 61.0 °F - 39.0 °F 44% 29.96 in 10.0 mi South 8.1 mph - N/A   Clear
10:52 PM 60.1 °F - 39.0 °F 46% 29.97 in 10.0 mi South 8.1 mph - N/A   Clear
11:52 PM 61.0 °F - 37.9 °F 42% 29.96 in 10.0 mi SSW 10.4 mph - N/A   Clear